AD7CQ Weather Reports


Display with metric or nautical units.
time (UTC)temp
F
wind
direction
speed
MPH
gust
MPH
rain 1hr
in
rain 24hr
in
rain mn
in
humidity
%
barometer
mb
20260510151534 60 23 0.0 0.0 0.00 0.00 0.00 59 1012.0
20260510150028 58 23 0.0 2.0 0.00 0.00 0.00 63 1012.3
20260510144540 56 23 0.0 4.0 0.00 0.00 0.00 67 1012.3
20260510143029 56 22 0.0 3.0 0.00 0.00 0.00 68 1012.3
20260510141526 55 23 0.0 2.0 0.00 0.00 0.00 69 1012.3
20260510140023 54 23 0.0 3.0 0.00 0.00 0.00 70 1012.2
20260510134522 53 22 0.0 1.0 0.00 0.00 0.00 74 1011.9
20260510133022 51 23 0.0 0.0 0.00 0.00 0.00 80 1011.9
20260510131519 49 22 0.0 0.0 0.00 0.00 0.00 82 1011.7
20260510130016 49 21 0.0 0.0 0.00 0.00 0.00 82 1011.6
20260510124509 49 23 0.0 0.0 0.00 0.00 0.00 81 1011.6
20260510123008 49 23 0.0 0.0 0.00 0.00 0.00 80 1011.7
20260510121505 50 23 0.0 0.0 0.00 0.00 0.00 79 1011.6
20260510120005 50 23 0.0 2.0 0.00 0.00 0.00 80 1011.7
20260510114505 50 23 0.0 0.0 0.00 0.00 0.00 79 1011.8
20260510113002 50 23 0.0 0.0 0.00 0.00 0.00 79 1011.7
20260510111608 51 22 0.0 0.0 0.00 0.00 0.00 78 1011.8
20260510110058 51 23 0.0 0.0 0.00 0.00 0.00 78 1011.9
20260510104613 52 23 0.0 0.0 0.00 0.00 0.00 78 1011.9
20260510103055 52 23 0.0 0.0 0.00 0.00 0.00 75 1011.9
20260510101552 53 22 0.0 0.0 0.00 0.00 0.00 73 1011.9
20260510100053 54 23 0.0 0.0 0.00 0.00 0.00 73 1011.9
20260510094548 54 23 0.0 1.0 0.00 0.00 0.00 73 1011.8
20260510093047 54 23 0.0 1.0 0.00 0.00 0.00 74 1011.9
20260510091545 54 23 0.0 0.0 0.00 0.00 0.00 72 1012.0
20260510090043 54 22 0.0 1.0 0.00 0.00 0.00 71 1012.2
20260510084540 55 23 0.0 0.0 0.00 0.00 0.00 70 1012.1
20260510083036 56 23 0.0 1.0 0.00 0.00 0.00 70 1012.3
20260510081537 56 23 1.0 3.0 0.00 0.00 0.00 68 1012.5
20260510080033 57 23 0.0 1.0 0.00 0.00 0.00 63 1012.4
20260510074533 58 23 0.0 0.0 0.00 0.00 0.00 62 1012.4
20260510073026 58 23 0.0 0.0 0.00 0.00 0.00 60 1012.5
20260510071525 59 23 0.0 2.0 0.00 0.00 0.00 61 1012.6
20260510070023 59 23 0.0 2.0 0.00 0.00 0.00 60 1012.5
20260510064524 60 23 1.0 2.0 0.00 0.00 0.00 60 1012.5
20260510063022 60 23 0.0 4.0 0.00 0.00 0.00 61 1012.5
20260510061528 60 23 0.0 2.0 0.00 0.00 0.00 64 1012.5
20260510060040 61 23 0.0 2.0 0.00 0.00 0.00 63 1012.6
20260510054520 62 23 0.0 3.0 0.00 0.00 0.00 61 1012.6
20260510053019 64 23 0.0 3.0 0.00 0.00 0.00 58 1012.6
20260510051519 65 23 0.0 3.0 0.00 0.00 0.00 55 1012.6
20260510050018 65 23 0.0 2.0 0.00 0.00 0.00 54 1012.8
20260510044518 66 23 0.0 2.0 0.00 0.00 0.00 53 1012.7
20260510043018 67 23 0.0 2.0 0.00 0.00 0.00 45 1012.8
20260510041525 68 22 0.0 1.0 0.00 0.00 0.00 39 1012.9
20260510040016 68 23 0.0 0.0 0.00 0.00 0.00 41 1012.8
20260510034515 69 23 0.0 0.0 0.00 0.00 0.00 38 1012.7
20260510033015 71 23 0.0 1.0 0.00 0.00 0.00 37 1012.8
20260510031515 72 23 0.0 1.0 0.00 0.00 0.00 35 1012.7
20260510030014 73 22 0.0 2.0 0.00 0.00 0.00 34 1012.6
20260510024513 74 23 0.0 2.0 0.00 0.00 0.00 33 1012.7
20260510023030 75 24 0.0 2.0 0.00 0.00 0.00 32 1012.8
20260510021510 75 23 1.0 3.0 0.00 0.00 0.00 31 1013.0
20260510020012 76 19 0.0 3.0 0.00 0.00 0.00 32 1013.0
20260510014509 76 21 0.0 3.0 0.00 0.00 0.00 31 1013.1
20260510013012 76 21 0.0 4.0 0.00 0.00 0.00 30 1013.2
20260510011512 76 20 0.0 2.0 0.00 0.00 0.00 30 1013.4
20260510010011 77 20 0.0 3.0 0.00 0.00 0.00 30 1013.5
20260510004505 77 21 1.0 4.0 0.00 0.00 0.00 28 1013.6
20260510003005 78 31 0.0 3.0 0.00 0.00 0.00 29 1013.7
20260510001504 77 23 0.0 6.0 0.00 0.00 0.00 29 1013.9
20260510000001 78 45 1.0 4.0 0.00 0.00 0.00 30 1013.8
20260509234611 78 4 0.0 0.0 0.00 0.00 0.00 31 1014.0
20260509233104 78 359 0.0 0.0 0.00 0.00 0.00 31 1014.1
20260509231604 78 4 0.0 6.0 0.00 0.00 0.00 32 1014.3
20260509230056 78 21 1.0 6.0 0.00 0.00 0.00 32 1014.4
20260509224602 78 81 0.0 4.0 0.00 0.00 0.00 33 1014.7
20260509223053 78 84 0.0 7.0 0.00 0.00 0.00 31 1014.9
20260509221551 78 102 1.0 3.0 0.00 0.00 0.00 33 1015.0
20260509220049 78 108 2.0 6.0 0.00 0.00 0.00 32 1015.2
20260509214548 78 114 0.0 3.0 0.00 0.00 0.00 30 1015.3
20260509213059 77 111 0.0 3.0 0.00 0.00 0.00 32 1015.4
20260509211609 77 110 0.0 3.0 0.00 0.00 0.00 33 1015.6
20260509210044 77 100 1.0 3.0 0.00 0.00 0.00 31 1015.7
20260509204557 77 97 0.0 2.0 0.00 0.00 0.00 33 1015.8
20260509203052 77 98 0.0 3.0 0.00 0.00 0.00 34 1016.1
20260509201541 77 99 0.0 4.0 0.00 0.00 0.00 33 1016.3
20260509200039 75 99 0.0 2.0 0.00 0.00 0.00 36 1016.4
20260509194541 75 98 0.0 3.0 0.00 0.00 0.00 34 1016.6
20260509193036 75 100 0.0 4.0 0.00 0.00 0.00 35 1016.8
20260509191535 73 92 0.0 3.0 0.00 0.00 0.00 37 1016.9
20260509190043 74 93 0.0 3.0 0.00 0.00 0.00 36 1017.1
20260509184531 74 92 0.0 4.0 0.00 0.00 0.00 36 1017.4
20260509183027 73 89 0.0 4.0 0.00 0.00 0.00 38 1017.6
20260509181523 72 84 0.0 1.0 0.00 0.00 0.00 39 1017.5
20260509180019 71 83 0.0 2.0 0.00 0.00 0.00 41 1017.7
20260509174516 69 81 0.0 2.0 0.00 0.00 0.00 42 1017.9
20260509173013 69 66 0.0 4.0 0.00 0.00 0.00 42 1017.9
20260509171509 69 64 0.0 2.0 0.00 0.00 0.00 42 1018.0
20260509170006 68 45 0.0 3.0 0.00 0.00 0.00 44 1018.1
20260509164502 68 44 0.0 1.0 0.00 0.00 0.00 43 1018.1
20260509163105 67 46 0.0 0.0 0.00 0.00 0.00 44 1018.3
20260509161554 66 45 0.0 1.0 0.00 0.00 0.00 47 1018.3
20260509160052 65 45 0.0 0.0 0.00 0.00 0.00 51 1018.4
20260509154545 65 45 0.0 0.0 0.00 0.00 0.00 52 1018.4
20260509153041 64 45 0.0 0.0 0.00 0.00 0.00 54 1018.4